Change the Weather History Date:

Saturday, August 23, 2014

  Actual Average Record
Temperature  
Mean Temperature 83 °F 79 °F  
Max Temperature 92 °F 89 °F 103 °F (1983)
Min Temperature 73 °F 69 °F 53 °F (1969)
Degree Days  
Heating Degree Days 0 0  
Month to date heating degree days 0 0  
Since 1 June heating degree days 0 0  
Since 1 July heating degree days 0 0  
Cooling Degree Days 18 14  
Month to date cooling degree days 329 347  
Year to date cooling degree days 1636 1534  
Since 1 June cooling degree days 1270 1250  
Growing Degree Days 32 (Base 50)    
Moisture  
Dew Point 73 °F    
Average Humidity 78    
Maximum Humidity 100    
Minimum Humidity 56    
Precipitation  
Precipitation 0.97 in 0.17 in 4.07 in (1947)
Month to date precipitation 3.92 4.22  
Year to date precipitation 26.92 30.16  
Sea Level Pressure  
Sea Level Pressure 29.90 in    
Wind  
Wind Speed 5 mph (NE)    
Max Wind Speed 31 mph    
Max Gust Speed 37 mph    
Visibility 7 miles    
Events Fog , Rain , Thunderstorm    
T = Trace of Precipitation, MM = Missing Value Source: NWS Daily Summary

Daily Weather History Graph

Daily Weather History Graph

Search for Another Location

Airport or City:

Trip Planner

Search our weather history database for the weather conditions in past years. The results will help you decide how hot, cold, wet, or windy it might be!

Date:

Astronomy

Aug. 23, 2014 Rise Set
Actual Time 6:41 AM EDT 7:54 PM EDT
Civil Twilight 6:15 AM EDT 8:20 PM EDT
Nautical Twilight 5:43 AM EDT 8:51 PM EDT
Astronomical Twilight 5:11 AM EDT 9:24 PM EDT
Moon 4:57 AM EDT (8/23) 6:37 PM EDT (8/23)
Length of Visible Light 14h 05m
Length of Day
13h 12m
Waning Crescent, 3% of the Moon is Illuminated
Aug 23
Waning Crescent
Aug 25
New
Sep 2
First Quarter
Sep 8
Full
Sep 15
Last Quarter

Hourly Weather History & Observations

Time (EDT) Temp. Heat Index Dew Point Humidity Pressure Visibility Wind Dir Wind Speed Gust Speed Precip Events Conditions
12:53 AM 75.9 °F - 70.0 °F 82% 29.93 in 10.0 mi Calm Calm - N/A   Clear
1:53 AM 73.0 °F - 70.0 °F 90% 29.91 in 10.0 mi Calm Calm - N/A   Partly Cloudy
2:53 AM 77.0 °F - 70.0 °F 79% 29.92 in 10.0 mi NW 10.4 mph - N/A   Scattered Clouds
3:53 AM 75.9 °F - 71.1 °F 85% 29.89 in 10.0 mi SSE 3.5 mph - N/A   Clear
5:53 AM 73.9 °F - 71.1 °F 91% 29.89 in 10.0 mi Calm Calm - N/A   Clear
8:53 AM 78.1 °F - 71.1 °F 79% 29.92 in 10.0 mi ENE 4.6 mph - N/A   Clear
9:53 AM 80.1 °F 83.6 °F 71.1 °F 74% 29.94 in 10.0 mi East 5.8 mph - N/A   Clear
10:53 AM 82.9 °F 88.8 °F 73.0 °F 72% 29.93 in 10.0 mi Variable 4.6 mph - N/A   Clear
11:53 AM 86.0 °F 93.8 °F 73.9 °F 67% 29.93 in 10.0 mi NNE 6.9 mph - N/A   Clear
12:53 PM 88.0 °F 96.5 °F 73.9 °F 63% 29.91 in 10.0 mi North 3.5 mph - N/A   Scattered Clouds
1:53 PM 89.1 °F 98.0 °F 73.9 °F 61% 29.90 in 10.0 mi North 5.8 mph - N/A   Mostly Cloudy
2:53 PM 91.0 °F 100.4 °F 73.9 °F 57% 29.88 in 10.0 mi Variable 6.9 mph - N/A   Mostly Cloudy
3:40 PM 82.0 °F 87.9 °F 73.9 °F 76% 29.89 in 10.0 mi East 9.2 mph - N/A   Overcast
3:50 PM 84.2 °F 90.9 °F 73.4 °F 70% 29.88 in 10.0 mi East 9.2 mph - N/A   Mostly Cloudy
3:53 PM 86.0 °F 93.0 °F 73.0 °F 65% 29.86 in 10.0 mi East 9.2 mph - N/A   Mostly Cloudy
5:26 PM 89.1 °F 98.0 °F 73.9 °F 61% 29.86 in 10.0 mi East 10.4 mph - N/A Thunderstorm Scattered Clouds
5:36 PM 87.1 °F 95.4 °F 73.9 °F 65% 29.89 in 7.0 mi NNE 19.6 mph 31.1 mph N/A Thunderstorm Thunderstorm
5:39 PM 82.9 °F 90.2 °F 75.0 °F 77% 29.89 in 1.5 mi North 27.6 mph 34.5 mph 0.13 in Rain , Thunderstorm Thunderstorms and Rain
5:44 PM 75.9 °F - 73.9 °F 94% 29.90 in 0.2 mi North 24.2 mph 36.8 mph 0.57 in Fog , Rain , Thunderstorm Heavy Thunderstorms and Rain
5:51 PM 75.2 °F - 73.4 °F 94% 29.89 in 0.2 mi NNE 26.5 mph 32.2 mph 0.81 in Fog , Rain , Thunderstorm Heavy Thunderstorms and Rain
5:53 PM 75.0 °F - 73.9 °F 96% 29.88 in 0.2 mi NNE 24.2 mph 32.2 mph 0.84 in Fog , Rain , Thunderstorm Heavy Thunderstorms and Rain
6:00 PM 75.0 °F - 73.0 °F 94% 29.90 in 0.8 mi NE 15.0 mph 32.2 mph 0.10 in Rain , Thunderstorm Thunderstorms and Rain
6:02 PM 75.0 °F - 73.0 °F 94% 29.90 in 1.0 mi NNE 11.5 mph 32.2 mph 0.10 in Rain , Thunderstorm Light Thunderstorms and Rain
6:08 PM 75.0 °F - 73.9 °F 96% 29.89 in 3.0 mi ENE 9.2 mph 23.0 mph 0.11 in Rain , Thunderstorm Light Thunderstorms and Rain
6:17 PM 75.9 °F - 73.9 °F 94% 29.90 in 5.0 mi NNE 5.8 mph - 0.12 in Rain , Thunderstorm Light Thunderstorms and Rain
6:25 PM 75.9 °F - 75.0 °F 97% 29.90 in 6.0 mi North 3.5 mph - 0.13 in Rain , Thunderstorm Light Rain
6:36 PM 77.0 °F - 75.0 °F 94% 29.90 in 7.0 mi NNE 5.8 mph - 0.13 in Rain Light Rain
6:53 PM 78.1 °F - 75.9 °F 93% 29.88 in 6.0 mi East 3.5 mph - 0.13 in   Mostly Cloudy
7:53 PM 78.1 °F - 75.9 °F 93% 29.88 in 6.0 mi ENE 6.9 mph - N/A   Mostly Cloudy
8:53 PM 77.0 °F - 75.0 °F 94% 29.90 in 10.0 mi East 4.6 mph - N/A   Mostly Cloudy
9:53 PM 75.9 °F - 75.0 °F 97% 29.91 in 8.0 mi NE 5.8 mph - N/A   Overcast
10:36 PM 75.9 °F - 73.9 °F 94% 29.93 in 8.0 mi ENE 4.6 mph - N/A   Overcast
10:45 PM 75.9 °F - 75.0 °F 97% 29.93 in 7.0 mi NE 3.5 mph - N/A   Overcast
10:53 PM 75.9 °F - 75.0 °F 97% 29.92 in 7.0 mi NE 3.5 mph - N/A   Overcast
11:12 PM 75.9 °F - 73.9 °F 94% 29.94 in 8.0 mi NNE 6.9 mph - N/A   Mostly Cloudy
11:53 PM 75.0 °F - 73.0 °F 94% 29.94 in 10.0 mi ENE 6.9 mph - N/A   Mostly Cloudy